Weather WX

World > North America > United States > Ohio

Congress, Ohio Regional Weather

Lat: 40.93N, Lon: 82.06W
Wx Zone: OHZ031
Warning FLW WEATHER ALERT - EXCESSIVE HEAT WARNING (More Info. Click Here) Warning
Feedback

Congress, OH Regional Weather

Expires:201907201200;;348343
ASUS41 KCLE 201112
RWRCLE
OHIO REGIONAL WEATHER ROUNDUP
NATIONAL WEATHER SERVICE WILMINGTON, OH
700 AM EDT SAT JUL 20 2019

NOTE: "FAIR" INDICATES FEW OR NO CLOUDS BELOW 12,000 FEET WITH NO
SIGNIFICANT WEATHER AND/OR OBSTRUCTIONS TO VISIBILITY.


OHZ009>014-019>023-028>033-038-089-201200-
   NORTHEAST OHIO
  
CITY           SKY/WX    TMP DP  RH WIND       PRES   REMARKS
CLE-HOPKINS    CLOUDY    77  74  90 SW10      29.96F                  
CLE-LAKEFRONT  CLOUDY    77  73  87 SW13      29.91F                  
CUY CO. ARPT   TSTM      72  70  94 SW6G12    29.93S                  
LORAIN-ELYRIA  CLOUDY    75  69  81 SW7       29.97R                  
ASHTABULA      LGT RAIN  71  70  96 S10       29.95F                  
AKRON-CANTON   MOCLDY    78  74  87 SW9       29.99R FOG              
WOOSTER        FAIR      76  74  93 W9        30.01R FOG              
MANSFIELD      MOCLDY    77  73  87 W12G21    30.02R                  
YOUNGSTOWN     CLOUDY    76  72  87 S6        29.96S THUNDER          
$$
 

SKY/WX - Weather  TMP - Temperature  DP - Dew Point  RH - Relative Humidity
WIND - Wind Direction/Speed PRES - Barometric Pressure VSB - Visibility
WCI - Wind Chill Index E13G22 Wind - East Wind 13 mph/Gusts of 22 mph